Location: Asheville, NC
(35.6000°N, 82.5500°W)
Time: 20:19:04
(UTC-05:00)

ISS - Pass Details

Date: 11 December 2020
Orbit: 418 x 419 km, 51.6° (Epoch: 17 January)

Event Time Altitude Azimuth Distance (km) Brightness Sun altitude
Rises 17:42:20 0° 306° (NW) 2,359 0.5 -5.4°
Reaches altitude 10° 17:44:28 10° 301° (WNW) 1,492 -0.4 -5.8°
Maximum altitude 17:47:42 47° 226° (SW) 556 -2.6 -6.4°
Drops below altitude 10° 17:50:56 10° 151° (SSE) 1,483 -1.0 -7.0°
Sets 17:53:03 0° 145° (SE) 2,343 -0.1 -7.4°
